[[{"header":{"parameterUnit":"m.s-1","parameterCategory":1,"la1":30.2991,"la2":30.254,"lo1":-89.0895,"lo2":-89.0444,"dy":0.0017,"dx":0.0017,"nx":28,"ny":28,"refTime":"2025-03-16T21:00:00:Z","depth":0,"parameterNumber":2,"parameterNumberName":"U-component_of_WINDS"},"data":[0,0,0,0,0,0,0,0,0,0,0,0,0,0,0,0,0,0,0,0,0,0,0,0,0,0,0,0,0,0,0,0,0,0,0,0,0,0,0,0,0,0,0,0,0,0,0,0,0,0,0,0,0,0,0,0,0,0,-1.3029,-1.303,0,-1.3128,-1.3129,-1.313,-1.3196,-1.3196,-1.3197,-1.3197,-1.3297,-1.3299,-1.3301,0,0,0,0,0,0,0,0,0,0,0,0,0,-1.2898,-1.29,-1.3029,-1.303,-1.3031,-1.3127,-1.3129,-1.313,-1.3196,-1.3196,-1.3197,-1.3197,-1.3296,-1.3299,-1.3302,0,0,0,0,0,0,0,0,0,0,0,0,0,-1.2971,-1.2901,-1.3029,-1.3076,-1.3081,-1.3127,-1.3129,-1.313,-1.3195,-1.3196,-1.3197,-1.3197,-1.3295,-1.3299,-1.3302,-1.3309,0,0,-1.3312,-1.3314,0,0,0,0,0,0,0,0,-1.2967,-1.2976,-1.3068,-1.3073,-1.3078,-1.315,-1.3119,-1.319,-1.3195,-1.3152,-1.3197,-1.3198,-1.3247,-1.3255,-1.3272,-1.3314,-1.3318,-1.3313,-1.3315,-1.3316,-1.3317,0,0,0,0,0,0,0,-1.2962,-1.2972,-1.3068,-1.3069,-1.3075,-1.3092,-1.3103,-1.3133,-1.3195,-1.3156,-1.3161,-1.3172,-1.3251,-1.3268,-1.3275,-1.3319,-1.3312,-1.3315,-1.3317,-1.3319,-1.3374,-1.3373,0,0,0,0,0,0,-1.2949,-1.2968,-1.3065,-1.3071,-1.3023,-1.3094,-1.3106,-1.3126,-1.3194,-1.3206,-1.3171,-1.3174,-1.3262,-1.3271,-1.3278,-1.3292,-1.3316,-1.3319,-1.3321,-1.3374,-1.3374,-1.3373,0,0,0,0,0,0,-1.2946,-1.2958,-1.3061,-1.3021,-1.3035,-1.3095,-1.3117,-1.3128,-1.3146,-1.3206,-1.3217,-1.3178,-1.3263,-1.3274,-1.3301,-1.3296,-1.3321,-1.3324,-1.3375,-1.3374,-1.3373,-1.3318,0,0,0,0,0,0,-1.2942,-1.2956,-1.2959,-1.302,-1.3037,-1.3082,-1.3117,-1.3129,-1.3152,-1.3157,-1.3215,-1.3226,-1.3265,-1.3296,-1.3305,-1.3301,-1.3326,-1.3376,-1.3375,-1.3374,-1.3321,-1.3316,-1.3311,0,0,0,0,0,-1.2937,-1.2939,-1.2959,-1.297,-1.3042,-1.3081,-1.3091,-1.3136,-1.3151,-1.3155,-1.3194,-1.3224,-1.3296,-1.3298,-1.3309,-1.3306,-1.3376,-1.3375,-1.3374,-1.3323,-1.3317,-1.3311,0,0,0,0,0,0,-1.2875,-1.2948,-1.2971,-1.2992,-1.303,-1.3092,-1.3098,-1.3128,-1.3162,-1.3165,-1.3219,-1.3232,-1.3254,-1.3283,-1.3285,-1.3317,-1.334,-1.334,-1.3297,-1.3292,-1.3287,-1.328,-1.3329,0,0,0,0,0,-1.2864,-1.289,-1.2952,-1.2965,-1.2983,-1.3037,-1.3056,-1.3088,-1.3129,-1.3145,-1.3186,-1.3225,-1.3257,-1.3276,-1.3308,-1.3326,-1.334,-1.3329,-1.3324,-1.332,-1.332,-1.3332,-1.3329,-1.3369,-1.3369,-1.3369,0,0,-1.2841,-1.2884,-1.2897,-1.2954,-1.2987,-1.3012,-1.305,-1.3076,-1.3095,-1.3149,-1.3178,-1.3209,-1.3256,-1.3279,-1.3291,-1.3304,-1.3312,-1.3319,-1.3315,-1.3317,-1.3331,-1.3327,-1.3323,-1.3368,-1.3368,-1.3368,0,0,-1.2812,-1.2847,-1.2862,-1.2895,-1.2945,-1.2981,-1.2985,-1.3043,-1.3066,-1.3096,-1.3138,-1.3162,-1.3215,-1.3247,-1.327,-1.3256,-1.3285,-1.3265,-1.3239,-1.3251,-1.3248,-1.3245,-1.324,-1.3238,-1.3264,-1.3264,-1.3264,0,-1.2777,-1.2817,-1.2866,-1.2889,-1.2913,-1.2964,-1.298,-1.301,-1.3067,-1.3083,-1.3097,-1.3165,-1.32,-1.3232,-1.3228,-1.3245,-1.3252,-1.3258,-1.3244,-1.3242,-1.324,-1.3236,-1.3234,-1.3261,-1.3262,-1.3262,-1.3262,0,-1.2772,-1.2799,-1.2805,-1.2861,-1.2886,-1.2905,-1.2957,-1.2977,-1.3007,-1.3042,-1.3072,-1.3117,-1.3159,-1.3169,-1.3198,-1.3205,-1.3212,-1.3234,-1.3257,-1.3233,-1.323,-1.3229,-1.3257,-1.3258,-1.3259,-1.326,0,0,-1.2704,-1.2788,-1.2789,-1.2816,-1.2875,-1.2898,-1.292,-1.2962,-1.2978,-1.3017,-1.3037,-1.3082,-1.3103,-1.313,-1.3163,-1.3173,-1.3159,-1.3194,-1.3196,-1.3186,-1.317,-1.3153,-1.315,-1.3179,-1.3179,-1.3179,-1.3166,0,-1.2684,-1.2727,-1.2773,-1.2799,-1.2826,-1.2875,-1.2895,-1.2934,-1.2968,-1.2995,-1.3033,-1.3064,-1.309,-1.3106,-1.3118,-1.3158,-1.3156,-1.316,-1.3199,-1.3199,-1.3185,-1.3148,-1.313,-1.3115,-1.3165,-1.3165,-1.3165,0,-1.2666,-1.2703,-1.2733,-1.2792,-1.2804,-1.2821,-1.2864,-1.289,-1.2936,-1.296,-1.299,-1.3026,-1.3052,-1.3073,-1.3111,-1.3112,-1.3131,-1.3153,-1.3154,-1.3158,-1.318,-1.3152,-1.3112,-1.3109,-1.3164,-1.3164,-1.3164,0,-1.2614,-1.2672,-1.2697,-1.2718,-1.2787,-1.2798,-1.2827,-1.2874,-1.2897,-1.2935,-1.295,-1.299,-1.3012,-1.3043,-1.3089,-1.31,-1.3121,-1.3146,-1.3142,-1.3141,-1.3144,-1.3143,-1.3105,-1.3156,-1.3156,-1.3156,-1.3156,0,-1.2587,-1.2603,-1.2675,-1.269,-1.271,-1.2763,-1.2781,-1.2815,-1.2856,-1.288,-1.2925,-1.2946,-1.3006,-1.3034,-1.307,-1.3096,-1.3106,-1.3126,-1.3135,-1.3122,-1.3119,-1.3134,-1.3136,-1.3156,-1.3156,-1.3156,-1.3156,0,-1.2532,-1.2581,-1.2612,-1.2675,-1.2692,-1.2703,-1.2758,-1.2775,-1.2812,-1.2841,-1.2851,-1.2909,-1.2945,-1.2994,-1.3045,-1.3069,-1.309,-1.3105,-1.3074,-1.308,-1.3073,-1.3073,-1.3044,-1.3043,-1.3094,-1.3094,-1.3093,0,-1.2511,-1.2525,-1.259,-1.2609,-1.2637,-1.2667,-1.2691,-1.2744,-1.2767,-1.2821,-1.2832,-1.2872,-1.2906,-1.296,-1.3007,-1.3046,-1.3063,-1.305,-1.3069,-1.3055,-1.3063,-1.3061,-1.3063,-1.3045,-1.3044,-1.3043,-1.3043,0,-1.2469,-1.2493,-1.2525,-1.2567,-1.2595,-1.263,-1.2668,-1.2681,-1.2742,-1.2766,-1.2803,-1.283,-1.2882,-1.2921,-1.2967,-1.2997,-1.303,-1.3037,-1.3038,-1.3024,-1.3006,-1.3016,-1.3062,-1.3037,-1.3037,-1.3038,-1.3038,-1.3038,-1.243,-1.2445,-1.2494,-1.2529,-1.2563,-1.2598,-1.2617,-1.2658,-1.269,-1.2737,-1.2766,-1.2802,-1.2849,-1.2914,-1.2944,-1.2973,-1.2986,-1.2988,-1.2988,-1.2987,-1.2983,-1.3001,-1.2981,-1.2982,-1.2982,-1.2982,-1.2982,0,-1.239,-1.2424,-1.2457,-1.2508,-1.2536,-1.2566,-1.261,-1.2631,-1.2662,-1.2704,-1.2737,-1.278,-1.2818,-1.2869,-1.2911,-1.2924,-1.2941,-1.2933,-1.2933,-1.2939,-1.2969,-1.2963,-1.292,-1.292,-1.292,-1.292,-1.292,-1.292,-1.2373,-1.24,-1.2429,-1.2474,-1.2509,-1.2545,-1.2567,-1.2599,-1.2633,-1.2679,-1.2711,-1.2744,-1.279,-1.2835,-1.2872,-1.2886,-1.2899,-1.2887,-1.2905,-1.2932,-1.2937,-1.2942,-1.2938,-1.289,-1.2889,-1.2874,-1.2874,-1.2874]},{"header":{"parameterUnit":"m.s-1","parameterCategory":1,"la1":30.2991,"la2":30.254,"lo1":-89.0895,"lo2":-89.0444,"dy":0.0017,"dx":0.0017,"nx":28,"ny":28,"refTime":"2025-03-16T21:00:00:Z","depth":0,"parameterNumber":3,"parameterNumberName":"V-component_of_WINDS"},"data":[0,0,0,0,0,0,0,0,0,0,0,0,0,0,0,0,0,0,0,0,0,0,0,0,0,0,0,0,0,0,0,0,0,0,0,0,0,0,0,0,0,0,0,0,0,0,0,0,0,0,0,0,0,0,0,0,0,0,0.8339,0.8338,0,0.8301,0.8301,0.83,0.8258,0.8257,0.8256,0.8256,0.8215,0.8215,0.8214,0,0,0,0,0,0,0,0,0,0,0,0,0,0.8372,0.8372,0.8339,0.8338,0.8338,0.8301,0.8301,0.83,0.8258,0.8257,0.8256,0.8255,0.8215,0.8215,0.8214,0,0,0,0,0,0,0,0,0,0,0,0,0,0.8348,0.8372,0.8339,0.8312,0.831,0.8301,0.8301,0.83,0.8258,0.8257,0.8256,0.8255,0.8215,0.8215,0.8214,0.8228,0,0,0.8212,0.8211,0,0,0,0,0,0,0,0,0.835,0.8347,0.8317,0.8314,0.8311,0.8283,0.8297,0.8276,0.8258,0.8277,0.8256,0.8255,0.8238,0.8236,0.8231,0.8226,0.8225,0.8212,0.8211,0.8211,0.8211,0,0,0,0,0,0,0,0.8352,0.8349,0.8324,0.8316,0.8313,0.8302,0.8297,0.8293,0.8264,0.8276,0.8272,0.8269,0.8237,0.8231,0.8229,0.8224,0.8212,0.8211,0.8211,0.821,0.8228,0.8229,0,0,0,0,0,0,0.8357,0.835,0.8325,0.8323,0.8329,0.8302,0.8297,0.8293,0.8264,0.8258,0.827,0.8267,0.8233,0.823,0.8228,0.8242,0.8211,0.821,0.821,0.8227,0.8228,0.8229,0,0,0,0,0,0,0.8358,0.8356,0.8327,0.8336,0.8331,0.8302,0.8298,0.8293,0.8287,0.8259,0.8253,0.827,0.8232,0.8229,0.8228,0.824,0.821,0.8209,0.8226,0.8227,0.8229,0.827,0,0,0,0,0,0,0.8359,0.8356,0.8362,0.8336,0.8331,0.8329,0.8299,0.8293,0.8287,0.8283,0.8258,0.8253,0.8231,0.823,0.8228,0.8238,0.8209,0.8225,0.8227,0.8228,0.8268,0.8273,0.8277,0,0,0,0,0,0.8361,0.8375,0.8362,0.836,0.8337,0.8329,0.8326,0.8302,0.8288,0.8293,0.8274,0.8253,0.8239,0.823,0.8227,0.8238,0.8224,0.8226,0.8228,0.8265,0.8272,0.8277,0,0,0,0,0,0,0.8402,0.8371,0.8357,0.8363,0.8349,0.8322,0.8328,0.831,0.8299,0.8296,0.8266,0.826,0.8263,0.825,0.8241,0.8249,0.8228,0.823,0.8258,0.8263,0.8268,0.8271,0.8208,0,0,0,0,0,0.8412,0.8409,0.8381,0.8389,0.8383,0.8357,0.8353,0.8335,0.8319,0.8313,0.8295,0.828,0.8271,0.8267,0.8258,0.8266,0.8259,0.8271,0.8276,0.828,0.8282,0.8284,0.8289,0.8236,0.8236,0.8236,0,0,0.8432,0.8415,0.8415,0.8397,0.8385,0.8381,0.8352,0.835,0.8347,0.8312,0.8311,0.8297,0.8278,0.8281,0.8282,0.8271,0.8295,0.8283,0.8286,0.8285,0.8286,0.8291,0.8296,0.8237,0.8237,0.8237,0,0,0.8467,0.8454,0.8459,0.8447,0.8428,0.8411,0.8412,0.8387,0.8377,0.8375,0.8349,0.8344,0.8331,0.8319,0.831,0.834,0.832,0.8338,0.8363,0.8365,0.8369,0.8373,0.8383,0.8387,0.834,0.834,0.834,0,0.8495,0.8489,0.8464,0.8463,0.8456,0.8425,0.8429,0.8419,0.8398,0.8393,0.8381,0.8363,0.8349,0.8348,0.8356,0.835,0.835,0.8341,0.8371,0.8374,0.8377,0.8386,0.839,0.8342,0.8342,0.8342,0.8342,0,0.8523,0.852,0.8526,0.8507,0.8501,0.8502,0.8477,0.8473,0.8456,0.8439,0.8437,0.8418,0.8404,0.8403,0.8386,0.84,0.8394,0.8377,0.8355,0.8385,0.8393,0.8396,0.8345,0.8345,0.8344,0.8343,0,0,0.8583,0.855,0.8553,0.8544,0.852,0.8517,0.8517,0.8504,0.8501,0.8488,0.8486,0.8476,0.846,0.845,0.8432,0.8434,0.8458,0.8417,0.8416,0.8424,0.8471,0.8483,0.8488,0.8445,0.8445,0.8446,0.8472,0,0.8614,0.8612,0.8589,0.8594,0.859,0.8561,0.8561,0.8546,0.8531,0.8524,0.8506,0.8499,0.8479,0.8473,0.8474,0.8455,0.8467,0.8453,0.8442,0.8442,0.8447,0.8492,0.8505,0.8531,0.8475,0.8476,0.8476,0,0.8649,0.8638,0.8643,0.8619,0.8616,0.8617,0.8603,0.8598,0.858,0.8568,0.8558,0.8537,0.8534,0.8514,0.8509,0.85,0.8494,0.8484,0.8485,0.8482,0.8461,0.849,0.8539,0.8542,0.8481,0.848,0.848,0,0.8691,0.8678,0.8678,0.8672,0.8644,0.8645,0.8633,0.8615,0.8609,0.8596,0.8591,0.8578,0.8571,0.8561,0.8537,0.8525,0.8534,0.8513,0.8524,0.8524,0.8527,0.8527,0.8574,0.8524,0.8524,0.8524,0.8524,0,0.8727,0.8731,0.8697,0.8698,0.8701,0.8674,0.8678,0.8663,0.8647,0.8643,0.8617,0.8614,0.8582,0.8575,0.8556,0.8555,0.8552,0.8541,0.8536,0.8543,0.8545,0.8539,0.8536,0.8525,0.8525,0.8525,0.8524,0,0.8775,0.8752,0.8751,0.8725,0.8719,0.8722,0.87,0.8699,0.8681,0.8677,0.8674,0.8647,0.8637,0.8612,0.8596,0.8583,0.8586,0.8577,0.8593,0.8589,0.8601,0.86,0.8646,0.865,0.8599,0.8599,0.86,0,0.8799,0.8801,0.8776,0.8772,0.8762,0.8756,0.8749,0.8722,0.8716,0.8696,0.8697,0.8686,0.8675,0.8661,0.8639,0.8626,0.8616,0.8633,0.8614,0.8621,0.8615,0.8615,0.8614,0.8637,0.8638,0.8638,0.8639,0,0.8844,0.8832,0.8824,0.8812,0.8805,0.8794,0.8782,0.878,0.875,0.8744,0.8735,0.8726,0.871,0.8698,0.8682,0.8669,0.8648,0.8645,0.8647,0.8654,0.8662,0.8657,0.8603,0.8644,0.8643,0.8643,0.8643,0.8642,0.8879,0.888,0.8862,0.8854,0.8842,0.883,0.8828,0.8811,0.8802,0.8787,0.8772,0.8764,0.8745,0.8721,0.8709,0.8702,0.8691,0.8694,0.8694,0.8695,0.8698,0.8664,0.8699,0.8698,0.8698,0.8698,0.8698,0,0.8922,0.8909,0.8902,0.8886,0.8879,0.8861,0.8846,0.8841,0.8835,0.882,0.881,0.8798,0.8787,0.8764,0.875,0.8748,0.8738,0.8745,0.8745,0.8742,0.8709,0.8708,0.8753,0.8753,0.8753,0.8753,0.8753,0.8753,0.8944,0.8943,0.893,0.8923,0.891,0.8902,0.8895,0.8884,0.8872,0.886,0.8851,0.8837,0.8818,0.8802,0.8791,0.8784,0.878,0.879,0.878,0.8749,0.8744,0.8739,0.8739,0.8789,0.8789,0.8813,0.8813,0.8814]}]]